Flag for Brazil Weather past 2 weeks in Passo Fundo, Rio Grande do Sul, Brazil

Now
72 °F

Sunny.


Feels Like: 74 °F
Forecast: 63 / 78 °F
Wind: 10 mph from Southeast

Location: Porto Alegre Aero-Porto

Current Time: Jan 31, 2015 at 8:37:44 AM

Latest Report: Jan 31, 2015 at 8:00 AM


Visibility: 10 mi

Pressure: 30.07 "Hg

Humidity: 73%

Dew point: 63 °F

Location of Passo FundoLocation

Historic Weather in Passo Fundo — Graph

°F

Passo Fundo temperature yesterday

Maximum temperature yesterday: 81 °F (at 1:00 PM)
Minimum temperature yesterday: 66 °F (at 4:00 AM)
Average temperature yesterday: 74 °F

Past Weeks' High & Low Weather Summary

 TemperatureHumidityPressure
High95 °F (Jan 27, 3:00 PM)100% (Jan 18, 3:00 AM)30.18 "Hg (Jan 18, 3:00 AM)
Low41 °F (Jan 24, 11:00 PM)43% (Jan 25, 6:00 PM)29.71 "Hg (Jan 28, 3:00 PM)
Average78 °F76%29.93 "Hg
* Reported Jan 16 7:00 AM — Jan 31 7:00 AM, Passo Fundo, Weather by CustomWeather, © 2014

Note: Actual official high and low records may vary slightly from our data, if they occured in-between our weather recording intervals... More about our weather records

Advertising

Passo Fundo weather history for previous 24 hours

 ConditionsComfort  
Time TempWeatherWind HumidityBarometerVisibility
7:00 AM
Jan 31
70 °FSunny.9 mph78%30.07 "Hg10 mi
6:00 AM70 °FClear.9 mph78%30.04 "Hg10 mi
5:00 AM70 °FClear.8 mph78%30.04 "Hg10 mi
4:00 AM70 °FClear.7 mph78%30.07 "Hg10 mi
3:00 AM68 °FClear.7 mph83%30.07 "Hg10 mi
2:00 AM66 °FClear.7 mph83%30.07 "Hg10 mi
1:00 AM68 °FClear.7 mph78%30.09 "Hg10 mi
12:00 AM70 °FClear.9 mph73%30.09 "Hg10 mi
11:00 PM
Jan 30
70 °FClear.9 mph73%30.09 "Hg10 mi
10:00 PM72 °FClear.12 mph69%30.07 "Hg10 mi
9:00 PM73 °FClear.13 mph65%30.07 "Hg10 mi
8:00 PM75 °FPassing clouds.15 mph61%30.07 "HgN/A
7:00 PM77 °FScattered clouds.20 mph57%30.07 "HgN/A
6:00 PM79 °FPartly sunny.14 mph54%30.04 "HgN/A
5:00 PM81 °FPartly sunny.8 mph54%30.07 "HgN/A
4:00 PM81 °FPartly sunny.12 mph51%30.07 "HgN/A
3:00 PM81 °FPartly sunny.12 mph51%30.07 "HgN/A
2:00 PM81 °FPartly sunny.18 mph54%30.09 "HgN/A
1:00 PM81 °FScattered clouds.14 mph48%30.09 "HgN/A
12:00 PM79 °FScattered clouds.13 mph54%30.09 "HgN/A
11:00 AM75 °FPartly sunny.8 mph65%30.09 "HgN/A
10:00 AM75 °FScattered clouds.8 mph69%30.07 "HgN/A
9:00 AM72 °FPassing clouds.6 mph78%30.07 "HgN/A
8:00 AM68 °FScattered clouds.2 mph94%30.04 "Hg5 mi
Weather by CustomWeather, © 2014

See weather overviewHow to use our weather pages